ANA94 RJTT-RJBB

Flight info

Callsign ANA94
Flight time N/A
Altitude 32000
Route LAXAS Y56 TOHME Y54 KOHWA Y544 DUBKA
Aircraft B77W/H-SDE1E2E3FGHIJ2J3J4J5M1RWXY/LB1D1

Departure

Time 2026-04-30 10:51
Airport Tokyo Haneda International Airport (RJTT)

Arrival

Time N/A
Airport Kansai International Airport (RJBB)
Time Latitude Longitude Altitude Speed Heading
2026-04-30 10:17 35.55162 139.78960 35 ft 0 kts 240°
2026-04-30 10:40 35.55168 139.78973 35 ft 2 kts 240°
2026-04-30 10:41 35.55175 139.78989 35 ft 2 kts 236°
2026-04-30 10:41 35.55185 139.79002 35 ft 2 kts 215°
2026-04-30 10:41 35.55198 139.79010 35 ft 2 kts 198°
2026-04-30 10:41 35.55212 139.79015 35 ft 2 kts 182°
2026-04-30 10:42 35.55226 139.79013 35 ft 2 kts 166°
2026-04-30 10:42 35.55241 139.79007 35 ft 2 kts 149°
2026-04-30 10:42 35.55254 139.78998 35 ft 2 kts 148°
2026-04-30 10:42 35.55267 139.78987 35 ft 2 kts 148°
2026-04-30 10:43 35.55275 139.78983 35 ft 0 kts 149°
2026-04-30 10:46 35.55248 139.79004 35 ft 9 kts 135°
2026-04-30 10:46 35.55240 139.79115 35 ft 18 kts 68°
2026-04-30 10:47 35.55299 139.79262 35 ft 17 kts 86°
2026-04-30 10:47 35.55224 139.79367 35 ft 16 kts 149°
2026-04-30 10:47 35.55126 139.79437 35 ft 15 kts 151°
2026-04-30 10:47 35.55033 139.79503 35 ft 14 kts 149°
2026-04-30 10:48 35.54948 139.79565 35 ft 13 kts 150°
2026-04-30 10:48 35.54865 139.79620 35 ft 13 kts 150°
2026-04-30 10:48 35.54787 139.79675 35 ft 13 kts 149°
2026-04-30 10:48 35.54700 139.79738 35 ft 15 kts 150°
2026-04-30 10:49 35.54597 139.79814 35 ft 18 kts 150°
2026-04-30 10:49 35.54479 139.79897 35 ft 20 kts 150°
2026-04-30 10:49 35.54349 139.79988 35 ft 22 kts 150°
2026-04-30 10:49 35.54209 139.80089 35 ft 17 kts 133°
2026-04-30 10:50 35.54230 139.80228 35 ft 18 kts 50°
2026-04-30 10:50 35.54343 139.80247 35 ft 18 kts 331°
2026-04-30 10:50 35.54390 139.80215 35 ft 4 kts 330°
2026-04-30 10:50 35.54546 139.80101 35 ft 63 kts 330°
2026-04-30 10:51 35.55179 139.79662 35 ft 142 kts 332°
2026-04-30 10:51 35.56174 139.78975 420 ft 176 kts 332°
2026-04-30 10:51 35.57223 139.78294 1268 ft 179 kts 345°
2026-04-30 10:51 35.58508 139.78130 1739 ft 194 kts 12°
2026-04-30 10:52 35.59806 139.78709 2224 ft 210 kts 39°
2026-04-30 10:52 35.60816 139.80098 2760 ft 227 kts 68°
2026-04-30 10:52 35.61129 139.82013 3334 ft 243 kts 98°
2026-04-30 10:52 35.60528 139.83936 4251 ft 249 kts 123°
2026-04-30 10:53 35.59564 139.85702 5365 ft 250 kts 126°
2026-04-30 10:53 35.58581 139.87453 6262 ft 259 kts 127°
2026-04-30 10:53 35.57554 139.89279 7215 ft 265 kts 127°
2026-04-30 10:53 35.56517 139.91121 8177 ft 269 kts 128°
2026-04-30 10:54 35.55421 139.93030 9020 ft 275 kts 133°
2026-04-30 10:54 35.53950 139.94463 9781 ft 277 kts 159°
2026-04-30 10:54 35.52070 139.94972 10469 ft 284 kts 183°
2026-04-30 10:54 35.50061 139.94685 10954 ft 302 kts 192°
2026-04-30 10:55 35.47949 139.94075 11463 ft 321 kts 200°
2026-04-30 10:55 35.45852 139.92973 12017 ft 337 kts 211°
2026-04-30 10:55 35.43873 139.91324 12617 ft 352 kts 222°
2026-04-30 10:55 35.42112 139.89177 13286 ft 363 kts 230°
2026-04-30 10:56 35.40425 139.86881 14219 ft 369 kts 230°
2026-04-30 10:56 35.38721 139.84580 15265 ft 371 kts 230°
2026-04-30 10:56 35.36964 139.82220 16171 ft 376 kts 230°
2026-04-30 10:56 35.35206 139.79872 17059 ft 380 kts 230°
2026-04-30 10:57 35.33428 139.77506 17912 ft 384 kts 231°
2026-04-30 10:57 35.31611 139.75107 18781 ft 388 kts 229°
2026-04-30 10:57 35.29607 139.72887 19705 ft 391 kts 224°
2026-04-30 10:57 35.27539 139.70723 20551 ft 395 kts 224°
2026-04-30 10:58 35.25447 139.68539 21398 ft 397 kts 224°
2026-04-30 10:58 35.23365 139.66368 22205 ft 399 kts 224°
2026-04-30 10:58 35.21254 139.64168 23018 ft 400 kts 224°
2026-04-30 10:58 35.19134 139.61960 23817 ft 402 kts 224°
2026-04-30 10:59 35.17015 139.59752 24575 ft 404 kts 224°
2026-04-30 10:59 35.14890 139.57541 25340 ft 405 kts 225°
2026-04-30 10:59 35.12734 139.55298 26133 ft 407 kts 224°
2026-04-30 10:59 35.10719 139.52933 26842 ft 406 kts 231°
2026-04-30 11:00 35.08970 139.50214 27514 ft 408 kts 238°
2026-04-30 11:00 35.07572 139.47252 28262 ft 408 kts 245°
2026-04-30 11:00 35.06519 139.44049 29009 ft 409 kts 251°
2026-04-30 11:00 35.05824 139.40665 29716 ft 412 kts 256°
2026-04-30 11:01 35.05268 139.37256 30461 ft 413 kts 257°
2026-04-30 11:01 35.04712 139.33833 31328 ft 409 kts 256°
2026-04-30 11:01 35.04166 139.30498 32007 ft 407 kts 255°
2026-04-30 11:01 35.03603 139.27087 32152 ft 403 kts 256°
2026-04-30 11:02 35.02503 139.20476 32159 ft 398 kts 255°
2026-04-30 11:02 35.01392 139.13855 32165 ft 398 kts 255°
2026-04-30 11:03 35.00279 139.07250 32156 ft 399 kts 256°
2026-04-30 11:04 34.98734 138.97328 32160 ft 399 kts 261°
2026-04-30 11:04 34.98370 138.90549 32161 ft 402 kts 262°
2026-04-30 11:05 34.98022 138.83777 32155 ft 399 kts 262°
2026-04-30 11:05 34.97669 138.77052 32145 ft 399 kts 262°
2026-04-30 11:06 34.97313 138.70340 32148 ft 397 kts 262°
2026-04-30 11:06 34.96953 138.63652 32135 ft 399 kts 262°
2026-04-30 11:07 34.96587 138.56924 32125 ft 398 kts 262°
2026-04-30 11:07 34.96217 138.50183 32133 ft 398 kts 262°
2026-04-30 11:08 34.95847 138.43520 32130 ft 397 kts 262°
2026-04-30 11:08 34.95472 138.36819 32102 ft 397 kts 262°
2026-04-30 11:09 34.95093 138.30131 32109 ft 396 kts 261°
2026-04-30 11:09 34.94710 138.23436 32108 ft 396 kts 261°
2026-04-30 11:10 34.94324 138.16759 32120 ft 395 kts 261°
2026-04-30 11:10 34.93938 138.10130 32106 ft 392 kts 261°
2026-04-30 11:11 34.93548 138.03503 32098 ft 395 kts 261°
2026-04-30 11:11 34.93152 137.96838 32090 ft 394 kts 261°
2026-04-30 11:12 34.92754 137.90201 32082 ft 394 kts 261°
2026-04-30 11:12 34.92351 137.83534 32084 ft 394 kts 261°
2026-04-30 11:13 34.91945 137.76878 32068 ft 396 kts 261°
2026-04-30 11:13 34.91521 137.70229 32068 ft 390 kts 259°
2026-04-30 11:14 34.90246 137.63782 32070 ft 393 kts 248°
2026-04-30 11:14 34.88390 137.57587 32079 ft 387 kts 248°
2026-04-30 11:15 34.86532 137.51410 32067 ft 391 kts 248°
2026-04-30 11:15 34.84687 137.45230 32075 ft 390 kts 249°
2026-04-30 11:16 34.82901 137.38956 32067 ft 391 kts 249°
2026-04-30 11:16 34.81124 137.32735 32073 ft 391 kts 249°
2026-04-30 11:17 34.79339 137.26512 32074 ft 391 kts 249°
2026-04-30 11:17 34.77541 137.20259 32067 ft 391 kts 248°
2026-04-30 11:18 34.75748 137.14038 32065 ft 392 kts 248°
2026-04-30 11:18 34.73045 137.04691 32059 ft 393 kts 248°
2026-04-30 11:19 34.71232 136.98436 32064 ft 390 kts 248°
2026-04-30 11:19 34.69026 136.92374 31720 ft 398 kts 242°
2026-04-30 11:20 34.67767 136.89403 31276 ft 398 kts 242°
2026-04-30 11:20 34.66504 136.86427 30820 ft 397 kts 242°
2026-04-30 11:20 34.65249 136.83473 30372 ft 399 kts 242°
2026-04-30 11:20 34.63977 136.80479 29926 ft 403 kts 242°
2026-04-30 11:21 34.62691 136.77457 29470 ft 406 kts 242°
2026-04-30 11:21 34.61386 136.74387 29007 ft 405 kts 242°
2026-04-30 11:21 34.60109 136.71388 28552 ft 402 kts 242°
2026-04-30 11:21 34.58836 136.68401 28126 ft 398 kts 242°
2026-04-30 11:22 34.57579 136.65453 27810 ft 394 kts 242°
2026-04-30 11:22 34.56308 136.62476 27509 ft 397 kts 242°
2026-04-30 11:22 34.55052 136.59535 27195 ft 397 kts 242°
2026-04-30 11:22 34.53777 136.56554 26885 ft 395 kts 242°
2026-04-30 11:23 34.52512 136.53597 26577 ft 394 kts 242°
2026-04-30 11:23 34.51274 136.50705 26275 ft 392 kts 242°
2026-04-30 11:23 34.48783 136.44897 25664 ft 383 kts 242°
2026-04-30 11:24 34.47560 136.42049 25334 ft 374 kts 242°
2026-04-30 11:24 34.46379 136.39300 24918 ft 368 kts 242°
2026-04-30 11:24 34.45210 136.36583 24479 ft 362 kts 242°
2026-04-30 11:25 34.42909 136.31239 23644 ft 364 kts 242°
2026-04-30 11:25 34.41727 136.28499 23195 ft 372 kts 242°
2026-04-30 11:25 34.39357 136.23007 22279 ft 368 kts 242°
2026-04-30 11:26 34.36997 136.17548 21355 ft 365 kts 242°
2026-04-30 11:26 34.35824 136.14813 20885 ft 364 kts 244°
2026-04-30 11:26 34.34925 136.11993 20418 ft 365 kts 252°
2026-04-30 11:27 34.34342 136.09024 19953 ft 363 kts 256°
2026-04-30 11:27 34.33812 136.06041 19482 ft 361 kts 256°
2026-04-30 11:27 34.33287 136.03090 19003 ft 359 kts 257°
2026-04-30 11:27 34.32758 136.00136 18536 ft 358 kts 257°
2026-04-30 11:28 34.31709 135.94308 18024 ft 354 kts 257°
2026-04-30 11:28 34.31184 135.91409 18008 ft 356 kts 257°
2026-04-30 11:28 34.30656 135.88490 18012 ft 356 kts 257°
2026-04-30 11:29 34.30123 135.85555 18013 ft 356 kts 257°
2026-04-30 11:29 34.29594 135.82645 18004 ft 356 kts 257°
2026-04-30 11:29 34.28539 135.76852 17792 ft 354 kts 257°
2026-04-30 11:30 34.27446 135.70874 16044 ft 376 kts 257°
2026-04-30 11:30 34.26879 135.67778 15111 ft 384 kts 257°
2026-04-30 11:30 34.26296 135.64603 14162 ft 390 kts 257°
2026-04-30 11:31 34.25708 135.61401 13236 ft 395 kts 257°
2026-04-30 11:31 34.25118 135.58191 12305 ft 400 kts 256°
2026-04-30 11:31 34.24515 135.54923 11371 ft 404 kts 256°
2026-04-30 11:31 34.23906 135.51616 10491 ft 404 kts 256°
2026-04-30 11:32 34.23302 135.48341 10281 ft 387 kts 256°
2026-04-30 11:32 34.22736 135.45274 10256 ft 367 kts 255°
2026-04-30 11:32 34.22196 135.42357 10225 ft 349 kts 255°
2026-04-30 11:33 34.21171 135.36842 9885 ft 325 kts 255°
2026-04-30 11:33 34.20681 135.34224 9444 ft 324 kts 254°
2026-04-30 11:33 34.20184 135.31560 8991 ft 321 kts 254°
2026-04-30 11:33 34.19707 135.29004 8565 ft 309 kts 253°
2026-04-30 11:34 34.19244 135.26517 8225 ft 296 kts 252°
2026-04-30 11:34 34.18804 135.24159 7891 ft 285 kts 252°
2026-04-30 11:34 34.18369 135.21840 7555 ft 275 kts 252°
2026-04-30 11:34 34.17955 135.19632 7239 ft 266 kts 251°
2026-04-30 11:35 34.17555 135.17502 6906 ft 259 kts 251°
2026-04-30 11:35 34.17137 135.15302 6622 ft 271 kts 252°
2026-04-30 11:35 34.17092 135.13023 6251 ft 278 kts 279°
2026-04-30 11:35 34.17907 135.10950 5885 ft 278 kts 308°
2026-04-30 11:36 34.19333 135.09325 5499 ft 278 kts 320°
2026-04-30 11:36 34.20851 135.07857 4929 ft 282 kts 320°
2026-04-30 11:36 34.22365 135.06400 4753 ft 270 kts 321°
2026-04-30 11:36 34.23885 135.04923 4714 ft 285 kts 322°
2026-04-30 11:37 34.25626 135.03772 4173 ft 291 kts 347°
2026-04-30 11:37 34.27593 135.03683 3960 ft 274 kts 16°
2026-04-30 11:37 34.29317 135.04526 3549 ft 263 kts 43°
2026-04-30 11:37 34.30525 135.06105 3115 ft 254 kts 59°
2026-04-30 11:38 34.31571 135.07817 2846 ft 248 kts 59°
2026-04-30 11:38 34.32595 135.09438 2688 ft 240 kts 59°
2026-04-30 11:38 34.33626 135.11008 2438 ft 236 kts 57°
2026-04-30 11:38 34.34647 135.12518 2144 ft 233 kts 57°
2026-04-30 11:39 34.35648 135.13969 1866 ft 213 kts 57°
2026-04-30 11:39 34.36551 135.15288 1608 ft 192 kts 57°
2026-04-30 11:39 34.37360 135.16483 1376 ft 176 kts 57°
2026-04-30 11:39 34.38107 135.17587 1160 ft 163 kts 57°
2026-04-30 11:40 34.38788 135.18590 966 ft 145 kts 56°
2026-04-30 11:40 34.39406 135.19507 784 ft 140 kts 55°
2026-04-30 11:40 34.40022 135.20415 590 ft 139 kts 54°
2026-04-30 11:40 34.40636 135.21323 401 ft 138 kts 54°
2026-04-30 11:41 34.41236 135.22217 189 ft 136 kts 50°
2026-04-30 11:41 34.41852 135.23100 57 ft 135 kts 49°
2026-04-30 11:41 34.42430 135.23949 15 ft 115 kts 49°
2026-04-30 11:41 34.42837 135.24564 18 ft 71 kts 50°
2026-04-30 11:42 34.42929 135.24699 18 ft 56 kts 51°